Flag for Portugal Weather past 2 weeks in Funchal, Madeira, Portugal

Now
59 °F

Passing clouds.


Feels Like: 57 °F
Forecast: 62 / 66 °F
Wind: 12 mph from North

Location: Aeroporto Da Madeira

Current Time: Dec 20, 2014 at 2:38:15 AM

Latest Report: Dec 20, 2014 at 2:00 AM


Visibility: N/A

Pressure: 30.48 "Hg

Humidity: 63%

Dew point: 46 °F

Location of FunchalLocation

Historic Weather in Funchal — Graph

°F

Funchal temperature yesterday

Maximum temperature yesterday: 63 °F (at 10:30 AM)
Minimum temperature yesterday: 59 °F (at 10:30 PM)
Average temperature yesterday: 61 °F

Past Weeks' High & Low Weather Summary

 TemperatureHumidityPressure
High68 °F (Dec 12, 10:30 AM)88% (Dec 15, 8:30 AM)30.51 "Hg (Dec 15, 8:30 AM)
Low52 °F (Dec 6, 2:30 AM)45% (Dec 13, 12:00 PM)30.04 "Hg (Dec 13, 4:30 AM)
Average60 °F69%30.35 "Hg
* Reported Dec 5 1:00 AM — Dec 20 1:00 AM, Funchal, Weather by CustomWeather, © 2014

Note: Actual official high and low records may vary slightly from our data, if they occured in-between our weather recording intervals... More about our weather records

Advertising

Funchal weather history for previous 24 hours

 ConditionsComfort  
Time TempWeatherWind HumidityBarometerVisibility
1:00 AM
Dec 20
59 °FPassing clouds.12 mph68%30.48 "HgN/A
12:30 AM59 °FPassing clouds.15 mph68%30.48 "HgN/A
12:00 AM59 °FPassing clouds.13 mph72%30.51 "HgN/A
11:30 PM
Dec 19
61 °FPassing clouds.13 mph68%30.51 "HgN/A
11:00 PM61 °FPassing clouds.13 mph68%30.51 "HgN/A
10:30 PM59 °FPartly cloudy.15 mph72%30.51 "HgN/A
10:00 PM61 °FPartly cloudy.9 mph63%30.48 "HgN/A
9:00 PM61 °FPartly cloudy.13 mph68%30.48 "HgN/A
8:30 PM61 °FPartly cloudy.12 mph68%30.48 "HgN/A
8:00 PM61 °FPartly cloudy.15 mph68%30.48 "HgN/A
7:30 PM61 °FPartly cloudy.13 mph68%30.48 "HgN/A
7:00 PM61 °FBroken clouds.14 mph68%30.45 "HgN/A
6:30 PM61 °FBroken clouds.10 mph68%30.45 "HgN/A
6:00 PM61 °FBroken clouds.10 mph68%30.45 "HgN/A
5:30 PM61 °FBroken clouds.10 mph72%30.45 "HgN/A
5:00 PM61 °FBroken clouds.12 mph72%30.45 "HgN/A
4:30 PM63 °FBroken clouds.15 mph68%30.45 "HgN/A
4:00 PM63 °FBroken clouds.12 mph68%30.45 "HgN/A
3:30 PM63 °FBroken clouds.14 mph68%30.45 "HgN/A
3:00 PM63 °FBroken clouds.13 mph68%30.45 "HgN/A
2:30 PM63 °FBroken clouds.10 mph68%30.45 "HgN/A
2:00 PM61 °FBroken clouds.10 mph77%30.45 "HgN/A
1:30 PM63 °FBroken clouds.15 mph73%30.48 "HgN/A
1:00 PM63 °FBroken clouds.10 mph73%30.48 "HgN/A
12:30 PM63 °FBroken clouds.14 mph73%30.48 "HgN/A
12:00 PM63 °FBroken clouds.13 mph68%30.48 "HgN/A
11:30 AM63 °FBroken clouds.9 mph73%30.51 "HgN/A
11:00 AM63 °FBroken clouds.13 mph73%30.51 "HgN/A
10:30 AM63 °FBroken clouds.10 mph73%30.48 "HgN/A
10:00 AM61 °FBroken clouds.12 mph77%30.48 "HgN/A
9:30 AM61 °FBroken clouds.9 mph72%30.48 "HgN/A
9:00 AM61 °FPartly cloudy.9 mph72%30.48 "HgN/A
8:30 AM61 °FPartly cloudy.9 mph72%30.48 "HgN/A
8:00 AM61 °FPartly cloudy.9 mph72%30.45 "HgN/A
7:30 AM61 °FPartly cloudy.9 mph72%30.45 "HgN/A
7:00 AM61 °FPartly cloudy.12 mph72%30.45 "HgN/A
6:30 AM61 °FPartly cloudy.9 mph68%30.42 "HgN/A
6:00 AM61 °FPartly cloudy.8 mph68%30.42 "HgN/A
5:30 AM61 °FPartly cloudy.10 mph68%30.42 "HgN/A
5:00 AM61 °FPartly cloudy.10 mph68%30.42 "HgN/A
4:30 AM61 °FPartly cloudy.8 mph63%30.42 "HgN/A
4:00 AM61 °FPartly cloudy.9 mph63%30.42 "HgN/A
3:30 AM61 °FPartly cloudy.12 mph68%30.42 "HgN/A
3:00 AM61 °FPartly cloudy.12 mph68%30.42 "HgN/A
2:30 AM61 °FPartly cloudy.9 mph63%30.42 "HgN/A
2:00 AM61 °FPartly cloudy.14 mph63%30.42 "HgN/A
Weather by CustomWeather, © 2014

See weather overviewHow to use our weather pages